TimePST,TemperatureF,Dew PointF,Humidity,Sea Level PressureIn,VisibilityMPH,Wind Direction,Wind SpeedMPH,Gust SpeedMPH,PrecipitationIn,Events,Conditions,WindDirDegrees,DateUTC
12:38 AM,48.2,42.8,82,29.61,8.0,South,1.2,-,N/A,Rain,Light Rain,170,2012-12-04 08:38:00
12:48 AM,48.2,44.6,87,29.60,5.0,Variable,2.3,-,N/A,Rain,Light Rain,0,2012-12-04 08:48:00
12:53 AM,46.4,44.6,93,29.60,5.0,East,4.6,-,N/A,Rain,Light Rain,100,2012-12-04 08:53:00
12:58 AM,46.4,45.5,97,29.61,6.0,ESE,5.8,-,0.06,Rain,Light Rain,120,2012-12-04 08:58:00
1:58 AM,46.0,44.8,95,29.57,5.0,SE,3.5,-,0.12,Rain,Light Rain,140,2012-12-04 09:58:00
2:14 AM,46.4,44.6,93,29.55,7.0,NE,5.8,-,N/A,Rain,Light Rain,50,2012-12-04 10:14:00
2:19 AM,46.4,44.6,93,29.56,5.0,NE,5.8,-,N/A,Rain,Light Rain,40,2012-12-04 10:19:00
2:24 AM,46.4,44.6,93,29.56,4.0,NNE,3.5,-,N/A,Rain,Light Rain,20,2012-12-04 10:24:00
2:29 AM,46.4,46.4,100,29.56,4.0,NNE,4.6,-,N/A,Rain,Light Rain,30,2012-12-04 10:29:00
2:34 AM,46.4,46.4,100,29.56,5.0,NNE,4.6,-,N/A,Rain,Light Rain,20,2012-12-04 10:34:00
2:44 AM,46.4,46.4,100,29.55,10.0,NE,2.3,-,N/A,Rain,Light Rain,50,2012-12-04 10:44:00
2:49 AM,46.4,46.4,100,29.55,10.0,ESE,3.5,-,N/A,Rain,Light Rain,110,2012-12-04 10:49:00
2:54 AM,46.4,44.6,93,29.55,9.0,ESE,4.6,-,N/A,Rain,Light Rain,120,2012-12-04 10:54:00
2:58 AM,45.7,45.5,99,29.56,9.0,ESE,5.8,-,0.04,,Light Drizzle,110,2012-12-04 10:58:00
3:33 AM,46.4,44.6,93,29.54,9.0,South,8.1,-,N/A,,Light Drizzle,180,2012-12-04 11:33:00
3:38 AM,46.4,46.4,100,29.54,9.0,South,8.1,-,N/A,,Light Drizzle,180,2012-12-04 11:38:00
3:48 AM,46.4,46.4,100,29.54,10.0,South,8.1,-,N/A,,Light Drizzle,170,2012-12-04 11:48:00
3:49 AM,46.4,46.4,100,29.54,10.0,South,8.1,-,N/A,,Overcast,180,2012-12-04 11:49:00
3:58 AM,46.4,46.0,99,29.56,10.0,South,9.2,-,0.01,,Overcast,180,2012-12-04 11:58:00
4:08 AM,46.4,46.4,100,29.54,10.0,South,9.2,-,N/A,,Overcast,180,2012-12-04 12:08:00
4:58 AM,52.2,49.5,91,29.57,10.0,South,18.4,25.3,N/A,,Overcast,170,2012-12-04 12:58:00
5:08 AM,53.6,50.0,88,29.58,10.0,South,18.4,-,N/A,Rain,Light Rain,180,2012-12-04 13:08:00
5:24 AM,51.8,50.0,94,29.59,10.0,South,13.8,23.0,N/A,Rain,Light Rain,180,2012-12-04 13:24:00
5:29 AM,51.8,50.0,94,29.59,9.0,South,20.7,24.2,N/A,Rain,Light Rain,180,2012-12-04 13:29:00
5:34 AM,51.8,50.0,94,29.60,10.0,South,17.3,24.2,N/A,Rain,Light Rain,190,2012-12-04 13:34:00
5:39 AM,51.8,50.0,94,29.60,9.0,South,16.1,-,N/A,Rain,Light Rain,180,2012-12-04 13:39:00
5:44 AM,51.8,50.0,94,29.61,10.0,South,15.0,-,N/A,Rain,Light Rain,180,2012-12-04 13:44:00
5:54 AM,51.8,51.8,100,29.62,10.0,SSE,10.4,-,N/A,Rain,Light Rain,160,2012-12-04 13:54:00
5:58 AM,51.8,51.3,98,29.64,10.0,SSE,11.5,-,0.02,Rain,Light Rain,160,2012-12-04 13:58:00
6:07 AM,51.8,50.0,94,29.63,10.0,South,13.8,-,N/A,,Overcast,170,2012-12-04 14:07:00
6:09 AM,51.8,50.0,94,29.63,10.0,South,10.4,-,N/A,Rain,Light Rain,170,2012-12-04 14:09:00
6:14 AM,51.8,50.0,94,29.63,10.0,South,10.4,-,N/A,Rain,Light Rain,170,2012-12-04 14:14:00
6:16 AM,51.8,50.0,94,29.63,10.0,South,8.1,-,N/A,Rain,Light Rain,170,2012-12-04 14:16:00
6:21 AM,51.8,50.0,94,29.63,10.0,South,10.4,-,N/A,Rain,Light Rain,170,2012-12-04 14:21:00
6:31 AM,51.8,50.0,94,29.64,8.0,South,8.1,-,N/A,Rain,Light Rain,170,2012-12-04 14:31:00
6:34 AM,51.8,50.0,94,29.65,7.0,South,9.2,-,N/A,,Overcast,170,2012-12-04 14:34:00
6:36 AM,51.8,50.0,94,29.65,7.0,South,9.2,-,N/A,Rain,Light Rain,170,2012-12-04 14:36:00
6:41 AM,51.8,50.0,94,29.65,9.0,South,9.2,-,N/A,Rain,Light Rain,170,2012-12-04 14:41:00
6:46 AM,51.8,50.0,94,29.66,10.0,South,10.4,-,N/A,Rain,Light Rain,170,2012-12-04 14:46:00
6:51 AM,51.8,50.0,94,29.66,9.0,South,10.4,-,N/A,Rain,Light Rain,170,2012-12-04 14:51:00
6:56 AM,51.8,50.0,94,29.66,9.0,South,10.4,-,N/A,Rain,Light Rain,170,2012-12-04 14:56:00
6:58 AM,51.8,50.0,94,29.68,9.0,South,10.4,-,0.03,Rain,Light Rain,170,2012-12-04 14:58:00
7:08 AM,51.8,50.0,94,29.67,9.0,South,9.2,-,N/A,Rain,Light Rain,190,2012-12-04 15:08:00
7:11 AM,51.8,50.0,94,29.68,9.0,South,9.2,-,N/A,,Overcast,190,2012-12-04 15:11:00
7:13 AM,51.8,50.0,94,29.68,9.0,South,9.2,-,N/A,Rain,Light Rain,190,2012-12-04 15:13:00
7:18 AM,51.8,50.0,94,29.68,9.0,South,9.2,-,N/A,Rain,Light Rain,180,2012-12-04 15:18:00
7:23 AM,51.8,50.0,94,29.68,9.0,SSW,10.4,-,N/A,Rain,Light Rain,200,2012-12-04 15:23:00
7:28 AM,51.8,51.8,100,29.69,6.0,South,11.5,-,N/A,Rain,Light Rain,190,2012-12-04 15:28:00
7:33 AM,51.8,51.8,100,29.69,6.0,SSW,12.7,-,N/A,Rain,Light Rain,200,2012-12-04 15:33:00
7:38 AM,51.8,51.8,100,29.69,6.0,SSW,12.7,-,N/A,Rain,Light Rain,200,2012-12-04 15:38:00
7:43 AM,51.8,51.8,100,29.69,7.0,SSW,16.1,21.9,N/A,Rain,Light Rain,210,2012-12-04 15:43:00
7:48 AM,51.8,50.0,94,29.69,8.0,SSW,18.4,21.9,N/A,Rain,Light Rain,210,2012-12-04 15:48:00
7:51 AM,51.8,50.0,94,29.69,8.0,SSW,17.3,26.5,N/A,,Overcast,210,2012-12-04 15:51:00
7:55 AM,51.8,50.0,94,29.69,8.0,SSW,16.1,26.5,N/A,Rain,Light Rain,210,2012-12-04 15:55:00
7:58 AM,51.3,49.8,95,29.70,8.0,SSW,17.3,26.5,0.05,Rain,Light Rain,200,2012-12-04 15:58:00
8:55 AM,50.0,50.0,100,29.73,10.0,SW,13.8,-,N/A,,Overcast,220,2012-12-04 16:55:00
8:56 AM,50.0,50.0,100,29.73,10.0,SW,13.8,-,N/A,,Overcast,220,2012-12-04 16:56:00
9:01 AM,50.0,48.2,94,29.73,10.0,SW,18.4,-,N/A,,Light Drizzle,220,2012-12-04 17:01:00
9:12 AM,50.0,48.2,94,29.74,10.0,SW,15.0,-,N/A,,Overcast,220,2012-12-04 17:12:00
9:27 AM,50.0,48.2,94,29.75,10.0,SW,13.8,-,N/A,Rain,Light Rain,220,2012-12-04 17:27:00
9:36 AM,50.0,48.2,94,29.75,10.0,SW,13.8,21.9,N/A,,Mostly Cloudy,220,2012-12-04 17:36:00
9:42 AM,50.0,48.2,94,29.75,10.0,SSW,13.8,-,N/A,Rain,Light Rain,210,2012-12-04 17:42:00
9:55 AM,50.7,47.8,90,29.77,10.0,SSW,15.0,-,0.00,Rain,Light Rain,210,2012-12-04 17:55:00
9:56 AM,50.0,48.2,94,29.76,10.0,SW,12.7,-,N/A,Rain,Light Rain,220,2012-12-04 17:56:00
10:08 AM,50.0,48.2,94,29.77,10.0,SSW,10.4,-,N/A,,Mostly Cloudy,210,2012-12-04 18:08:00
10:56 AM,50.0,48.2,94,29.78,10.0,SSW,11.5,-,N/A,,Overcast,210,2012-12-04 18:56:00
11:53 AM,51.8,46.4,82,29.78,10.0,SSW,13.8,-,N/A,Rain,Light Rain,200,2012-12-04 19:53:00
11:56 AM,51.8,46.4,82,29.78,10.0,SSW,13.8,-,N/A,Rain,Light Rain,210,2012-12-04 19:56:00
12:03 PM,50.0,46.4,87,29.77,10.0,SSW,12.7,-,N/A,,Mostly Cloudy,200,2012-12-04 20:03:00
12:23 PM,50.0,46.4,87,29.77,10.0,South,11.5,-,N/A,Rain,Light Rain,190,2012-12-04 20:23:00
12:36 PM,50.0,46.4,87,29.77,10.0,SSW,10.4,-,N/A,,Overcast,200,2012-12-04 20:36:00
12:39 PM,50.0,46.4,87,29.77,10.0,SSW,11.5,-,N/A,Rain,Light Rain,210,2012-12-04 20:39:00
12:56 PM,49.6,46.2,88,29.78,10.0,SSW,12.7,-,0.00,Rain,Light Rain,210,2012-12-04 20:56:00
1:07 PM,50.0,46.4,87,29.76,10.0,SSW,12.7,-,N/A,,Overcast,200,2012-12-04 21:07:00
1:17 PM,50.0,46.4,87,29.75,10.0,South,11.5,-,N/A,,Overcast,190,2012-12-04 21:17:00
1:55 PM,50.0,46.4,87,29.75,10.0,SW,13.8,23.0,N/A,Rain,Light Rain,220,2012-12-04 21:55:00
1:56 PM,50.0,46.4,87,29.75,10.0,SW,15.0,23.0,N/A,Rain,Light Rain,220,2012-12-04 21:56:00
2:11 PM,48.2,46.4,93,29.75,10.0,SSW,12.7,-,N/A,,Overcast,200,2012-12-04 22:11:00
2:22 PM,48.2,46.4,93,29.76,10.0,South,10.4,-,N/A,,Overcast,190,2012-12-04 22:22:00
2:55 PM,49.1,48.4,97,29.76,10.0,South,11.5,-,0.01,,Overcast,190,2012-12-04 22:55:00
3:35 PM,50.0,48.2,94,29.76,10.0,South,10.4,-,N/A,Rain,Light Rain,190,2012-12-04 23:35:00
3:55 PM,49.6,46.9,90,29.78,10.0,SSW,12.7,-,0.00,Rain,Light Rain,200,2012-12-04 23:55:00
4:14 PM,50.0,46.4,87,29.77,10.0,SSW,9.2,-,N/A,,Overcast,200,2012-12-05 00:14:00
4:31 PM,50.0,46.4,87,29.77,10.0,SSW,8.1,-,N/A,Rain,Light Rain,200,2012-12-05 00:31:00
4:55 PM,48.2,46.2,93,29.76,10.0,South,5.8,-,0.00,,Overcast,190,2012-12-05 00:55:00
5:15 PM,46.4,46.4,100,29.75,10.0,South,9.2,-,N/A,Rain,Light Rain,180,2012-12-05 01:15:00
5:27 PM,46.4,44.6,93,29.75,10.0,South,9.2,-,N/A,,Mostly Cloudy,170,2012-12-05 01:27:00
5:55 PM,47.8,44.2,87,29.75,10.0,South,12.7,-,0.00,,Overcast,170,2012-12-05 01:55:00
6:06 PM,48.2,44.6,87,29.74,10.0,South,13.8,-,N/A,Rain,Light Rain,170,2012-12-05 02:06:00
6:15 PM,48.2,42.8,82,29.74,10.0,South,11.5,-,N/A,,Mostly Cloudy,180,2012-12-05 02:15:00
6:41 PM,48.2,42.8,82,29.75,10.0,South,12.7,-,N/A,Rain,Light Rain,170,2012-12-05 02:41:00
6:55 PM,46.4,42.8,87,29.75,10.0,South,9.2,-,0.01,Rain,Light Rain,190,2012-12-05 02:55:00
7:23 PM,46.4,44.6,93,29.77,5.0,West,17.3,21.9,N/A,Rain,Heavy Rain,270,2012-12-05 03:23:00
7:25 PM,46.4,44.6,93,29.78,5.0,WSW,15.0,21.9,N/A,Rain,Heavy Rain,240,2012-12-05 03:25:00
7:30 PM,46.4,44.6,93,29.77,4.0,SW,10.4,23.0,N/A,Rain,Rain,220,2012-12-05 03:30:00
7:45 PM,46.4,42.8,87,29.77,7.0,SW,12.7,-,N/A,Rain,Light Rain,220,2012-12-05 03:45:00
7:58 PM,45.7,43.7,93,29.78,10.0,SSW,12.7,-,0.11,Rain,Light Rain,200,2012-12-05 03:58:00
8:13 PM,46.4,44.6,93,29.77,9.0,SSW,12.7,-,N/A,Rain,Light Rain,200,2012-12-05 04:13:00
8:16 PM,46.4,44.6,93,29.79,9.0,SSW,11.5,-,N/A,,Overcast,200,2012-12-05 04:16:00
8:36 PM,44.6,44.6,100,29.78,9.0,SSW,15.0,-,N/A,Rain,Light Rain,200,2012-12-05 04:36:00
8:54 PM,46.4,42.8,87,29.78,10.0,SSW,12.7,-,N/A,,Mostly Cloudy,200,2012-12-05 04:54:00
8:55 PM,45.5,43.0,91,29.79,10.0,SSW,12.7,-,0.04,,Mostly Cloudy,200,2012-12-05 04:55:00
9:33 PM,44.6,42.8,93,29.80,10.0,South,12.7,-,N/A,Rain,Light Rain,190,2012-12-05 05:33:00
9:56 PM,44.6,44.6,100,29.82,8.0,SSW,11.5,-,N/A,Rain,Light Rain,200,2012-12-05 05:56:00
9:58 PM,44.6,44.6,100,29.82,8.0,SSW,10.4,-,N/A,Rain,Light Rain,200,2012-12-05 05:58:00
10:07 PM,46.4,44.6,93,29.82,9.0,SSW,11.5,-,N/A,Rain,Light Rain,200,2012-12-05 06:07:00
10:09 PM,46.4,44.6,93,29.82,10.0,SSW,11.5,-,N/A,,Overcast,200,2012-12-05 06:09:00
10:12 PM,46.4,42.8,87,29.82,10.0,SSW,12.7,-,N/A,Rain,Light Rain,200,2012-12-05 06:12:00
10:22 PM,46.4,44.6,93,29.83,10.0,SSW,11.5,-,N/A,,Overcast,200,2012-12-05 06:22:00
10:58 PM,45.1,43.5,94,29.85,10.0,SSW,8.1,-,0.01,,Overcast,210,2012-12-05 06:58:00
11:02 PM,44.6,42.8,93,29.86,9.0,SSW,12.7,-,N/A,Rain,Light Rain,210,2012-12-05 07:02:00
11:07 PM,44.6,42.8,93,29.86,8.0,SSW,11.5,-,N/A,Rain,Light Rain,210,2012-12-05 07:07:00
11:25 PM,44.6,42.8,93,29.86,10.0,South,11.5,-,N/A,,Overcast,190,2012-12-05 07:25:00
11:52 PM,44.6,42.8,93,29.89,10.0,SW,17.3,25.3,N/A,Rain,Light Rain,220,2012-12-05 07:52:00
11:57 PM,44.6,41.0,87,29.89,9.0,WSW,13.8,25.3,N/A,Rain,Light Rain,240,2012-12-05 07:57:00
11:58 PM,44.6,41.0,87,29.89,9.0,WSW,13.8,25.3,0.03,Rain,Light Rain,240,2012-12-05 07:58:00